Wind_Speed
13 14 13 14 15 15 15 16 15 14 13 12 12 12 12 11 10 11 11 10 10 9 9 9 8 7 7 6 6 6 6 5 5 4 4 4 4 3 2 2 1 1 2 2 2 2 2 3 2
13 14 14 15 15 15 15 16 16 14 13 13 13 12 12 11 10 11 11 10 10 9 9 9 8 8 7 7 6 6 6 6 5 5 5 4 4 3 3 2 2 2 2 1 1 1 2 2 2
13 13 14 15 15 15 15 16 16 15 14 14 13 12 11 10 10 10 10 10 10 9 9 9 9 8 8 7 7 6 5 5 5 5 5 4 4 4 4 4 3 3 2 2 2 2 2 2 2
12 13 14 15 14 15 15 16 16 16 15 14 13 12 11 10 10 10 10 10 9 9 9 9 9 8 8 8 7 6 5 5 5 4 3 3 3 3 3 3 3 2 2 2 2 2 2 2 2
12 13 14 14 14 15 16 16 16 16 15 13 13 12 10 10 10 9 9 9 8 8 8 9 8 8 8 8 7 6 6 5 5 4 3 3 3 3 3 3 3 3 3 2 1 2 2 2 1
12 12 13 15 15 16 16 16 16 16 14 13 12 11 10 10 9 9 8 8 8 8 8 8 8 7 7 7 7 7 6 6 5 4 4 4 4 4 3 3 2 3 3 2 1 1 1 1 1
12 12 13 15 16 15 16 16 16 15 14 13 12 11 11 10 9 8 8 8 8 8 8 7 7 7 7 7 6 7 6 6 5 4 4 4 4 4 3 3 2 2 2 2 2 1 1 1 1
11 12 13 14 15 15 15 15 15 15 15 14 12 11 11 10 9 8 8 8 8 8 8 8 8 7 6 7 6 7 6 5 5 5 4 3 3 2 2 2 2 2 2 2 2 2 1 1 1
11 11 13 14 14 14 14 14 14 14 14 14 13 12 11 10 9 8 8 8 8 8 8 8 7 6 6 7 7 6 5 5 4 4 4 3 3 2 2 2 1 2 1 1 1 0 0 0 0
10 11 12 12 13 13 13 14 14 14 14 13 13 12 11 11 10 9 9 9 8 8 8 8 7 6 6 5 5 5 4 4 4 4 3 3 2 2 1 1 1 1 1 1 1 1 1 1 1
9 10 11 11 12 12 13 13 13 13 13 12 12 11 11 11 10 10 9 8 8 8 8 7 7 7 7 6 5 5 4 4 4 4 3 2 1 1 1 1 1 1 0 0 0 0 0 0 1
9 9 9 10 11 12 12 12 12 13 13 12 11 11 10 10 10 10 9 8 8 7 6 7 7 7 6 5 5 4 3 3 2 2 2 1 1 1 0 0 1 1 0 1 1 2 2 1 1
8 8 8 9 10 12 13 12 12 12 12 12 11 11 11 11 11 10 9 8 8 7 7 7 7 6 5 5 4 3 3 2 2 2 1 1 0 1 1 1 1 2 1 2 2 2 3 2 2
7 7 8 9 10 11 11 11 11 11 11 11 10 10 10 10 10 10 9 8 8 8 7 7 6 5 5 4 4 3 3 2 2 1 1 1 1 1 1 2 2 2 2 3 3 3 3 3 3
5 6 7 8 8 8 9 9 10 9 10 10 10 10 10 10 9 9 9 9 8 8 7 6 6 5 4 4 3 3 2 2 1 1 1 1 1 1 2 2 3 3 3 4 4 4 4 4 4
4 4 4 6 7 7 7 8 8 8 9 9 9 10 10 10 10 9 8 8 8 8 7 6 6 5 4 3 3 2 2 1 1 1 1 1 1 1 2 3 4 4 4 5 5 5 5 5 5
1 2 2 3 4 5 6 6 7 7 7 8 8 9 10 10 9 9 9 9 8 8 7 6 6 4 3 3 3 3 2 2 2 2 2 2 2 2 3 4 4 5 5 5 5 6 6 7 7
3 1 1 1 2 3 4 5 6 6 7 6 7 8 10 10 10 9 9 9 8 8 7 7 6 4 2 2 2 3 3 3 4 4 5 4 4 4 5 5 6 6 7 7 7 7 8 8 8
5 3 2 2 3 4 3 4 5 6 6 5 5 7 8 10 10 9 8 9 9 8 7 7 6 4 3 2 3 3 4 4 5 5 6 6 5 5 5 6 7 7 8 8 8 9 9 9 9
6 5 4 5 5 5 5 5 6 6 5 5 5 6 7 8 9 9 9 9 9 8 8 7 5 5 5 4 5 5 5 6 6 6 7 7 7 7 7 7 8 8 8 9 9 10 10 11 11
8 7 7 7 7 6 7 6 6 6 5 5 5 6 7 8 9 9 9 8 8 8 8 7 7 7 6 6 6 6 6 6 7 7 7 8 8 8 8 9 9 9 10 10 11 11 11 12 12
9 9 9 9 9 8 8 7 7 7 6 6 6 7 8 8 9 10 10 9 9 8 8 8 8 8 7 7 7 7 8 8 8 9 9 9 10 10 10 10 10 11 11 11 11 12 12 13 13
12 12 12 11 11 10 10 9 8 7 7 8 8 8 9 10 11 11 10 10 10 9 9 9 9 9 8 8 9 9 9 10 10 10 10 11 11 11 11 11 11 12 12 12 13 13 14 14 14
14 15 15 15 13 12 12 12 10 9 9 9 10 10 11 11 11 12 12 11 11 10 10 10 10 11 10 10 11 11 11 11 11 11 11 12 12 12 12 12 12 13 13 13 14 15 15 14 14
16 17 17 17 16 15 14 15 13 12 11 11 11 12 12 12 12 12 12 12 12 11 11 11 12 12 11 11 12 13 13 13 13 13 13 13 13 13 13 14 14 14 14 15 15 16 16 16 16
17 18 19 19 18 17 18 17 15 14 13 13 13 13 13 13 12 13 13 12 12 12 12 13 13 13 13 13 13 14 14 14 14 14 14 15 15 15 15 15 16 16 16 16 16 17 17 17 17
18 19 19 20 20 20 19 18 17 16 16 15 15 15 13 13 13 13 13 13 13 13 13 13 13 13 14 15 14 15 15 15 15 15 15 16 16 16 16 16 17 17 17 17 16 17 17 17 18
19 19 19 20 22 22 21 20 19 18 17 16 15 15 14 14 14 14 14 14 14 15 15 14 15 14 15 16 15 16 15 16 16 16 16 17 17 17 17 17 17 17 17 17 17 17 17 18 18
21 22 22 22 23 23 24 22 19 19 18 17 16 16 15 15 15 15 15 15 15 16 16 16 15 16 16 16 17 17 16 16 16 17 17 17 18 18 18 18 18 17 18 18 18 18 19 19 19
23 24 24 24 24 24 25 23 21 20 19 18 18 17 16 17 17 17 17 17 17 17 17 17 17 16 17 17 17 17 17 17 17 18 18 18 18 18 18 18 18 18 18 19 19 19 19 19 20
Wind_Direction
79 77 79 77 75 72 70 69 68 65 64 67 67 67 67 68 66 63 64 66 65 68 69 71 78 82 89 93 94 95 93 97 99 96 97 94 92 100 104 126 131 134 147 146 137 158 170 175 181
84 80 79 77 75 74 69 68 67 65 67 69 67 66 66 66 65 64 66 68 67 68 71 71 72 77 84 88 92 95 96 97 95 97 104 102 92 87 83 96 112 115 134 142 141 160 186 194 205
85 83 78 75 74 75 72 69 67 65 66 67 65 65 65 66 66 67 69 70 68 69 71 71 69 74 78 81 87 91 96 96 94 99 106 102 96 88 81 81 95 104 113 121 124 132 167 197 213
80 82 79 75 74 76 74 68 66 62 61 60 61 62 62 65 68 68 69 71 68 70 75 71 69 70 71 77 84 86 87 89 90 99 104 101 99 84 75 79 78 94 113 117 113 117 139 162 187
84 82 80 76 76 76 73 67 65 61 57 57 58 59 59 62 66 68 68 69 70 70 72 69 70 72 75 76 78 77 75 83 87 87 87 93 92 86 83 83 82 75 91 107 102 107 138 157 171
77 78 81 80 76 74 72 66 63 61 54 54 56 58 58 59 62 65 65 66 67 70 73 72 72 76 79 80 80 79 76 76 82 86 80 83 90 86 86 89 78 65 71 84 104 136 139 167 200
72 74 79 78 76 73 71 66 62 59 54 51 54 60 60 58 60 65 65 64 65 65 70 73 72 78 80 82 86 86 86 81 81 86 90 93 89 82 80 87 82 72 65 79 119 163 180 253 277
73 74 75 78 76 71 69 65 59 57 54 51 53 59 57 54 59 65 65 62 62 63 66 69 74 86 86 84 87 92 86 77 79 83 93 94 88 83 79 87 87 81 68 72 90 108 148 211 250
77 71 73 74 74 70 67 64 59 56 54 54 54 58 60 57 59 61 64 64 64 64 64 66 68 74 77 74 77 82 74 67 72 77 85 84 86 82 82 93 94 100 98 83 73 75 304 283 298
81 71 67 69 71 68 62 61 59 58 56 54 54 55 57 58 57 57 59 62 63 61 60 58 59 61 59 59 65 67 73 70 74 86 89 87 75 57 58 80 118 120 113 90 35 28 3 340 321
84 75 67 66 68 67 60 56 54 55 55 53 50 51 54 55 52 54 56 57 56 54 54 54 51 53 56 61 69 69 70 65 71 94 93 82 68 62 51 69 83 107 91 61 358 347 17 32 300
82 73 67 65 65 64 59 57 55 55 52 51 51 49 50 52 50 50 49 50 50 47 49 49 52 56 57 56 60 65 64 58 61 78 83 76 80 80 339 296 310 285 296 317 305 308 305 298 298
86 74 67 64 64 65 61 56 55 51 48 48 49 51 50 48 47 46 45 44 43 40 39 45 50 52 53 47 45 53 55 54 57 55 48 27 334 286 272 273 271 255 266 292 298 290 291 292 298
90 78 75 71 63 62 60 56 52 48 44 47 48 47 45 41 40 40 41 38 34 32 33 36 39 42 42 41 42 48 48 54 62 63 41 347 299 255 247 249 249 255 264 276 283 285 283 282 285
92 87 77 71 63 57 55 52 47 44 44 43 41 42 39 33 32 32 33 33 27 27 27 29 29 35 37 39 41 49 55 66 79 48 10 5 352 266 258 242 250 257 262 271 278 281 280 279 279
87 92 86 70 60 53 47 43 37 37 39 39 39 36 31 25 25 24 22 22 22 23 25 26 25 25 27 33 41 35 31 44 35 340 323 307 312 294 268 262 260 264 266 268 273 274 271 275 277
93 94 87 64 45 45 41 38 29 27 29 31 28 27 22 19 19 15 13 15 13 14 18 18 14 9 15 17 20 11 352 342 336 327 320 305 297 292 287 282 273 272 270 270 271 273 273 274 278
210 237 299 343 2 13 26 26 17 12 16 20 19 19 16 13 12 8 4 3 6 5 5 7 8 5 353 347 350 346 332 326 321 310 307 309 302 295 285 281 277 277 276 276 274 276 276 278 282
221 236 266 289 300 329 351 347 358 3 2 10 11 8 7 6 5 0 355 354 352 351 354 352 358 355 340 314 314 313 312 311 306 302 302 301 303 303 292 283 287 284 282 281 281 280 278 279 283
238 239 254 272 283 302 317 323 336 345 341 345 358 359 359 1 358 355 346 345 343 342 338 335 334 346 344 322 312 310 307 308 305 301 297 295 295 299 298 290 287 284 281 278 277 277 277 279 278
251 250 261 263 270 293 303 309 324 328 329 330 343 347 344 346 349 347 344 344 344 340 339 333 330 326 326 315 310 311 309 308 304 300 297 294 292 291 290 290 287 284 281 278 276 275 275 281 281
266 266 272 274 274 283 292 304 312 313 319 321 321 328 329 334 339 342 340 336 334 329 328 327 326 321 315 308 306 307 307 305 302 297 294 290 289 288 284 285 284 281 280 280 280 278 276 278 281
264 266 271 278 278 276 284 294 305 307 304 308 312 318 321 328 332 335 334 331 329 324 322 318 317 316 312 304 301 302 301 300 301 299 295 292 289 286 286 286 284 283 281 280 280 279 276 279 281
260 263 270 275 275 276 281 285 295 303 301 302 308 308 313 317 319 325 326 327 325 321 318 313 313 311 309 304 300 299 298 296 298 298 296 294 291 288 286 287 285 283 282 282 281 281 277 278 279
261 266 272 272 271 274 276 278 287 297 297 295 299 298 302 306 310 316 318 320 321 318 315 311 309 308 307 303 301 299 296 294 295 295 294 294 293 290 287 287 286 284 282 282 281 281 280 278 278
262 266 269 270 270 272 274 277 283 289 290 293 294 298 298 299 305 313 318 318 319 318 316 313 311 309 308 304 301 298 295 294 294 293 291 292 292 291 289 287 285 285 283 283 282 281 280 279 278
262 265 269 269 271 272 274 278 278 283 286 290 292 295 298 299 304 310 314 314 314 315 316 316 313 312 310 306 302 301 297 295 295 293 293 292 290 291 290 286 285 285 284 283 283 282 279 278 279
259 264 267 269 270 272 275 278 280 280 281 285 287 288 290 294 300 303 308 311 312 313 314 314 311 311 310 309 305 302 298 295 293 292 293 292 290 289 288 285 285 284 283 282 283 283 282 279 279
259 262 265 267 271 273 275 277 279 278 277 277 280 281 284 291 296 300 303 306 309 311 312 311 310 309 308 307 305 301 298 294 293 292 292 291 289 288 287 286 285 284 283 282 283 282 281 282 282
259 261 263 267 271 273 275 275 276 276 274 273 277 280 281 287 293 296 299 302 305 307 307 308 306 307 307 306 303 299 297 295 294 292 291 291 290 288 287 286 284 283 282 282 281 281 280 280 281
Height
5879 5878 5878 5879 5878 5877 5876 5876 5875 5874 5874 5874 5874 5873 5874 5874 5875 5877 5874 5873 5873 5872 5872 5871 5871 5871 5871 5871 5871 5871 5872 5872 5873 5873 5873 5874 5874 5875 5875 5875 5876 5876 5877 5877 5878 5879 5879 5880 5881
5881 5880 5881 5880 5879 5878 5878 5877 5877 5876 5876 5876 5875 5875 5875 5875 5875 5875 5874 5874 5874 5873 5873 5873 5872 5872 5872 5872 5872 5872 5872 5873 5873 5873 5874 5875 5875 5875 5875 5875 5876 5876 5877 5878 5878 5878 5879 5880 5881
5883 5883 5883 5882 5880 5880 5880 5879 5879 5878 5878 5877 5877 5877 5877 5877 5876 5876 5876 5876 5875 5875 5874 5874 5874 5873 5873 5873 5873 5873 5873 5874 5874 5874 5875 5875 5876 5876 5876 5876 5876 5877 5877 5878 5878 5878 5879 5880 5881
5885 5885 5885 5884 5882 5882 5881 5881 5880 5880 5880 5879 5878 5878 5878 5878 5878 5878 5877 5877 5877 5876 5876 5875 5875 5874 5874 5874 5874 5874 5874 5874 5874 5875 5875 5876 5876 5876 5877 5877 5877 5877 5877 5878 5878 5879 5879 5880 5880
5887 5887 5886 5885 5884 5884 5883 5883 5882 5882 5881 5881 5880 5880 5880 5880 5879 5879 5878 5878 5878 5877 5877 5876 5876 5875 5875 5875 5875 5875 5875 5875 5875 5876 5876 5876 5877 5877 5877 5877 5878 5877 5877 5878 5879 5879 5879 5880 5880
5889 5888 5888 5887 5886 5886 5885 5884 5884 5884 5883 5883 5882 5881 5881 5881 5880 5880 5879 5879 5879 5878 5878 5877 5876 5876 5875 5875 5875 5876 5876 5876 5876 5876 5877 5877 5877 5877 5878 5878 5878 5878 5878 5878 5879 5879 5879 5880 5880
5891 5890 5889 5889 5888 5887 5887 5886 5886 5886 5885 5885 5884 5883 5882 5882 5882 5881 5880 5880 5879 5879 5878 5878 5877 5877 5876 5876 5876 5876 5877 5877 5877 5877 5877 5877 5878 5878 5878 5878 5879 5879 5879 5879 5879 5879 5879 5880 5880
5892 5893 5891 5890 5890 5890 5889 5888 5888 5887 5887 5886 5886 5885 5884 5884 5883 5883 5882 5881 5880 5880 5879 5879 5878 5877 5876 5877 5877 5877 5877 5877 5877 5878 5878 5878 5878 5878 5878 5879 5879 5879 5879 5879 5879 5879 5879 5879 5880
5894 5895 5893 5892 5892 5892 5891 5890 5890 5889 5889 5888 5887 5887 5886 5885 5885 5884 5883 5882 5881 5881 5880 5879 5879 5878 5877 5877 5878 5878 5878 5878 5878 5878 5878 5878 5878 5879 5879 5879 5879 5879 5879 5880 5879 5879 5879 5879 5879
5896 5896 5895 5894 5894 5894 5893 5892 5892 5891 5890 5889 5889 5888 5887 5887 5886 5885 5884 5883 5882 5882 5881 5880 5879 5879 5878 5878 5878 5878 5878 5878 5878 5878 5878 5879 5879 5879 5879 5879 5879 5879 5879 5880 5880 5879 5879 5879 5879
5897 5897 5897 5896 5896 5895 5894 5894 5894 5893 5892 5891 5890 5890 5889 5888 5887 5886 5885 5884 5883 5882 5882 5881 5880 5880 5879 5879 5878 5878 5878 5878 5878 5878 5879 5879 5879 5879 5879 5879 5879 5879 5879 5880 5880 5880 5880 5879 5879
5899 5899 5898 5898 5897 5897 5896 5896 5896 5894 5894 5893 5892 5891 5890 5889 5888 5886 5886 5885 5884 5883 5882 5881 5881 5880 5880 5879 5879 5879 5879 5878 5879 5879 5879 5879 5879 5879 5879 5879 5879 5879 5879 5880 5880 5880 5879 5879 5879
5901 5900 5900 5899 5898 5898 5898 5898 5897 5896 5895 5894 5893 5892 5891 5890 5889 5887 5886 5886 5885 5883 5882 5882 5881 5881 5880 5880 5879 5879 5879 5879 5879 5879 5879 5879 5879 5879 5879 5879 5879 5879 5879 5879 5879 5879 5879 5879 5879
5902 5901 5901 5901 5900 5900 5900 5899 5899 5898 5896 5895 5894 5893 5892 5891 5890 5888 5887 5886 5885 5884 5883 5882 5881 5880 5880 5880 5880 5879 5879 5879 5879 5878 5878 5878 5878 5878 5878 5878 5878 5879 5879 5879 5879 5879 5878 5878 5878
5903 5903 5902 5902 5901 5901 5901 5901 5900 5899 5898 5897 5895 5894 5893 5891 5890 5889 5888 5886 5885 5884 5883 5882 5881 5880 5880 5879 5879 5879 5879 5879 5879 5878 5878 5878 5878 5878 5878 5878 5878 5878 5877 5877 5878 5878 5877 5877 5877
5903 5904 5904 5904 5902 5902 5903 5901 5900 5899 5898 5897 5896 5895 5894 5892 5891 5889 5888 5886 5885 5884 5883 5882 5881 5880 5880 5879 5879 5879 5878 5878 5878 5878 5878 5877 5877 5877 5877 5877 5877 5876 5876 5876 5876 5876 5876 5876 5876
5904 5904 5904 5904 5903 5902 5902 5901 5901 5900 5899 5898 5897 5896 5894 5893 5891 5889 5887 5886 5885 5884 5883 5882 5880 5880 5879 5879 5878 5878 5878 5878 5877 5877 5877 5876 5876 5876 5876 5875 5875 5875 5875 5875 5875 5875 5874 5875 5875
5904 5903 5903 5903 5903 5902 5901 5901 5901 5900 5899 5898 5897 5896 5894 5893 5891 5889 5888 5886 5885 5883 5882 5881 5879 5879 5879 5878 5878 5877 5877 5877 5876 5876 5876 5875 5875 5874 5874 5874 5874 5874 5873 5873 5873 5873 5872 5872 5872
5903 5903 5903 5903 5902 5901 5901 5901 5900 5900 5899 5898 5897 5896 5894 5893 5891 5889 5887 5886 5884 5883 5881 5880 5879 5878 5877 5877 5877 5876 5876 5876 5875 5875 5874 5874 5873 5873 5872 5872 5872 5872 5871 5871 5871 5871 5870 5870 5870
5902 5902 5902 5902 5901 5901 5900 5900 5900 5899 5899 5898 5897 5896 5894 5892 5890 5888 5887 5885 5883 5882 5881 5879 5877 5876 5876 5876 5876 5875 5875 5874 5874 5873 5872 5872 5871 5871 5870 5870 5870 5869 5869 5869 5868 5868 5868 5868 5867
5901 5901 5901 5901 5900 5900 5900 5900 5899 5899 5898 5897 5896 5895 5894 5892 5890 5888 5886 5884 5882 5881 5879 5878 5877 5875 5875 5875 5874 5874 5873 5873 5872 5871 5870 5870 5869 5869 5868 5868 5867 5867 5866 5866 5866 5865 5865 5865 5865
5899 5900 5899 5899 5899 5899 5899 5898 5898 5897 5897 5896 5895 5894 5893 5891 5889 5887 5885 5883 5881 5879 5878 5877 5876 5875 5874 5873 5872 5871 5871 5870 5870 5869 5868 5867 5867 5866 5866 5865 5864 5864 5863 5863 5862 5862 5862 5861 5861
5897 5898 5897 5897 5897 5897 5897 5896 5897 5896 5895 5895 5894 5893 5891 5889 5887 5886 5884 5881 5879 5877 5876 5875 5874 5872 5871 5871 5870 5869 5868 5868 5867 5866 5865 5864 5864 5863 5862 5862 5861 5861 5860 5860 5859 5858 5858 5858 5857
5895 5895 5895 5894 5895 5895 5895 5895 5895 5894 5894 5893 5892 5891 5889 5888 5886 5884 5882 5880 5877 5875 5874 5872 5871 5870 5869 5868 5867 5866 5866 5865 5864 5863 5862 5861 5860 5859 5859 5858 5858 5857 5856 5856 5855 5854 5854 5853 5853
5892 5893 5892 5892 5892 5892 5893 5892 5893 5892 5891 5891 5890 5889 5887 5886 5884 5882 5880 5877 5875 5873 5871 5870 5868 5867 5866 5865 5864 5863 5862 5861 5860 5859 5859 5858 5857 5856 5855 5854 5854 5853 5852 5851 5850 5850 5849 5849 5848
5889 5890 5890 5890 5889 5889 5889 5888 5890 5890 5889 5888 5887 5886 5885 5883 5882 5880 5877 5875 5873 5870 5869 5867 5865 5864 5863 5862 5860 5859 5858 5857 5856 5855 5854 5854 5853 5852 5851 5850 5849 5848 5847 5847 5845 5845 5845 5844 5844
5885 5885 5886 5886 5885 5885 5884 5885 5886 5886 5885 5885 5884 5883 5882 5880 5879 5877 5875 5873 5870 5868 5866 5864 5862 5860 5859 5857 5856 5855 5854 5853 5852 5851 5850 5849 5848 5847 5846 5845 5844 5843 5842 5842 5841 5840 5840 5839 5839
5881 5881 5881 5881 5880 5880 5880 5881 5882 5882 5881 5881 5880 5880 5879 5877 5876 5874 5872 5870 5868 5865 5863 5861 5859 5857 5855 5853 5852 5851 5849 5848 5847 5846 5845 5844 5843 5842 5841 5840 5839 5838 5837 5836 5835 5835 5834 5833 5833
5876 5877 5876 5876 5876 5875 5875 5878 5878 5877 5877 5876 5876 5875 5875 5873 5872 5871 5869 5867 5864 5862 5860 5857 5856 5853 5851 5849 5848 5846 5845 5843 5842 5841 5840 5839 5837 5836 5835 5834 5833 5832 5831 5830 5830 5829 5828 5828 5827
5871 5871 5871 5871 5871 5870 5870 5874 5872 5872 5872 5872 5871 5871 5870 5869 5868 5866 5865 5863 5860 5858 5856 5854 5852 5849 5847 5845 5843 5842 5840 5839 5837 5836 5835 5833 5832 5830 5829 5828 5827 5826 5825 5825 5824 5823 5822 5822 5821